Time,TemperatureF,DewpointF,PressureIn,WindDirection,WindDirectionDegrees,WindSpeedMPH,WindSpeedGustMPH,Humidity,HourlyPrecipIn,Conditions,Clouds,dailyrainin,SoftwareType,DateUTC
2013-03-10 00:00:00,35.9,32.7,29.66,North,360,10.0,22.0,88,0.02,,---,0.23,VWS V14.01,2013-03-10 06:00:00,
2013-03-10 00:05:00,35.8,32.6,29.68,North,355,6.0,20.0,88,0.01,,---,0.00,VWS V14.01,2013-03-10 06:05:00,
2013-03-10 00:10:00,35.8,32.9,29.70,NNE,28,7.0,20.0,89,0.01,,---,0.00,VWS V14.01,2013-03-10 06:10:00,
2013-03-10 00:15:00,35.7,32.8,29.70,North,360,3.0,20.0,89,0.01,,---,0.00,VWS V14.01,2013-03-10 06:15:00,
2013-03-10 00:20:00,35.7,32.5,29.70,NE,45,7.0,20.0,88,0.01,,---,0.00,VWS V14.01,2013-03-10 06:20:00,
2013-03-10 00:25:00,35.7,32.5,29.69,NNE,13,8.0,20.0,88,0.01,,---,0.00,VWS V14.01,2013-03-10 06:25:00,
2013-03-10 00:30:00,35.6,32.4,29.69,North,5,5.0,20.0,88,0.01,,---,0.00,VWS V14.01,2013-03-10 06:30:00,
2013-03-10 00:35:00,35.6,32.4,29.69,North,5,10.0,17.0,88,0.01,,---,0.00,VWS V14.01,2013-03-10 06:35:00,
2013-03-10 00:40:00,35.5,32.3,29.70,NNW,348,6.0,17.0,88,0.01,,---,0.00,VWS V14.01,2013-03-10 06:40:00,
2013-03-10 00:45:00,35.5,32.3,29.70,NNE,26,9.0,17.0,88,0.02,,---,0.01,VWS V14.01,2013-03-10 06:45:00,
2013-03-10 00:50:00,35.4,32.2,29.70,NNE,24,7.0,17.0,88,0.02,,---,0.01,VWS V14.01,2013-03-10 06:50:00,
2013-03-10 00:55:00,35.3,32.4,29.70,NNE,19,5.0,17.0,89,0.03,,---,0.02,VWS V14.01,2013-03-10 06:55:00,
2013-03-10 00:58:00,34.1,31.2,29.73,WNW,295,10.0,18.0,89,0.04,,---,0.04,VWS V14.01,2013-03-10 06:58:00,
2013-03-10 00:59:00,34.1,31.2,29.73,NNW,341,5.0,18.0,89,0.05,,---,0.04,VWS V14.01,2013-03-10 06:59:00,
2013-03-10 01:00:00,35.2,32.3,29.70,NNE,19,7.0,17.0,89,0.03,,---,0.02,VWS V14.01,2013-03-10 07:00:00,
2013-03-10 01:05:00,35.1,32.2,29.70,NNW,348,11.0,19.0,89,0.02,,---,0.02,VWS V14.01,2013-03-10 07:05:00,
2013-03-10 01:10:00,35.1,32.2,29.71,North,5,4.0,19.0,89,0.02,,---,0.02,VWS V14.01,2013-03-10 07:10:00,
2013-03-10 01:15:00,35.1,32.2,29.72,North,5,3.0,19.0,89,0.02,,---,0.02,VWS V14.01,2013-03-10 07:15:00,
2013-03-10 01:20:00,35.1,32.2,29.73,NNW,338,7.0,19.0,89,0.02,,---,0.02,VWS V14.01,2013-03-10 07:20:00,
2013-03-10 01:25:00,35.1,32.2,29.73,NNE,32,11.0,19.0,89,0.03,,---,0.03,VWS V14.01,2013-03-10 07:25:00,
2013-03-10 01:30:00,35.0,32.1,29.74,NNW,327,4.0,19.0,89,0.04,,---,0.04,VWS V14.01,2013-03-10 07:30:00,
2013-03-10 01:35:00,34.9,32.0,29.74,NNE,24,11.0,13.0,89,0.04,,---,0.04,VWS V14.01,2013-03-10 07:35:00,
2013-03-10 01:40:00,34.7,31.8,29.74,North,349,13.0,13.0,89,0.04,,---,0.04,VWS V14.01,2013-03-10 07:40:00,
2013-03-10 01:45:00,34.4,31.5,29.73,NNW,348,6.0,15.0,89,0.04,,---,0.04,VWS V14.01,2013-03-10 07:45:00,
2013-03-10 01:50:00,34.4,31.5,29.74,North,360,11.0,15.0,89,0.04,,---,0.04,VWS V14.01,2013-03-10 07:50:00,
2013-03-10 01:55:00,34.3,31.4,29.73,NNW,345,4.0,18.0,89,0.04,,---,0.04,VWS V14.01,2013-03-10 07:55:00,
2013-03-10 03:01:00,34.0,31.1,29.73,NNE,19,11.0,18.0,89,0.05,,---,0.04,VWS V14.01,2013-03-10 08:01:00,
2013-03-10 03:06:00,34.0,31.1,29.74,NNW,335,7.0,17.0,89,0.02,,---,0.04,VWS V14.01,2013-03-10 08:06:00,
2013-03-10 03:11:00,34.0,31.1,29.74,NNE,30,8.0,18.0,89,0.03,,---,0.05,VWS V14.01,2013-03-10 08:11:00,
2013-03-10 03:16:00,33.9,31.0,29.73,NNW,345,18.0,19.0,89,0.03,,---,0.05,VWS V14.01,2013-03-10 08:16:00,
2013-03-10 03:21:00,33.8,30.9,29.73,North,350,10.0,21.0,89,0.03,,---,0.05,VWS V14.01,2013-03-10 08:21:00,
2013-03-10 03:26:00,33.7,30.8,29.73,NW,305,10.0,21.0,89,0.03,,---,0.05,VWS V14.01,2013-03-10 08:26:00,
2013-03-10 03:31:00,33.7,30.8,29.73,North,360,5.0,21.0,89,0.03,,---,0.05,VWS V14.01,2013-03-10 08:31:00,
2013-03-10 03:36:00,33.6,30.7,29.73,NNE,24,12.0,18.0,89,0.01,,---,0.05,VWS V14.01,2013-03-10 08:36:00,
2013-03-10 03:41:00,33.5,30.6,29.74,NNE,19,6.0,20.0,89,0.01,,---,0.05,VWS V14.01,2013-03-10 08:41:00,
2013-03-10 03:46:00,33.5,30.6,29.74,NNE,24,5.0,22.0,89,0.01,,---,0.05,VWS V14.01,2013-03-10 08:46:00,
2013-03-10 03:51:00,33.5,30.6,29.74,North,360,13.0,22.0,89,0.01,,---,0.05,VWS V14.01,2013-03-10 08:51:00,
2013-03-10 03:56:00,33.4,30.5,29.74,NNE,19,5.0,22.0,89,0.01,,---,0.05,VWS V14.01,2013-03-10 08:56:00,
2013-03-10 04:01:00,33.3,30.4,29.74,North,350,10.0,22.0,89,0.01,,---,0.05,VWS V14.01,2013-03-10 09:01:00,
2013-03-10 04:06:00,33.3,30.1,29.75,North,360,5.0,20.0,88,0.01,,---,0.05,VWS V14.01,2013-03-10 09:06:00,
2013-03-10 04:11:00,33.3,30.1,29.74,North,360,19.0,20.0,88,0.01,,---,0.05,VWS V14.01,2013-03-10 09:11:00,
2013-03-10 04:16:00,33.2,30.0,29.73,NE,55,4.0,26.0,88,0.01,,---,0.05,VWS V14.01,2013-03-10 09:16:00,
2013-03-10 04:21:00,33.2,30.0,29.73,NNE,14,4.0,26.0,88,0.01,,---,0.05,VWS V14.01,2013-03-10 09:21:00,
2013-03-10 04:26:00,33.2,30.0,29.73,NNW,334,9.0,26.0,88,0.01,,---,0.05,VWS V14.01,2013-03-10 09:26:00,
2013-03-10 04:31:00,33.2,30.0,29.75,North,10,14.0,26.0,88,0.01,,---,0.05,VWS V14.01,2013-03-10 09:31:00,
2013-03-10 04:36:00,33.2,30.0,29.74,NNE,22,4.0,19.0,88,0.00,,---,0.05,VWS V14.01,2013-03-10 09:36:00,
2013-03-10 04:41:00,33.1,29.9,29.73,NNE,24,9.0,20.0,88,0.00,,---,0.05,VWS V14.01,2013-03-10 09:41:00,
2013-03-10 04:46:00,33.0,29.8,29.74,North,360,14.0,25.0,88,0.00,,---,0.05,VWS V14.01,2013-03-10 09:46:00,
2013-03-10 04:51:00,32.9,29.7,29.74,North,355,15.0,25.0,88,0.00,,---,0.05,VWS V14.01,2013-03-10 09:51:00,
2013-03-10 04:56:00,32.8,29.6,29.74,North,360,9.0,25.0,88,0.00,,---,0.05,VWS V14.01,2013-03-10 09:56:00,
2013-03-10 05:01:00,32.7,29.5,29.74,NW,322,6.0,25.0,88,0.00,,---,0.05,VWS V14.01,2013-03-10 10:01:00,
2013-03-10 05:06:00,32.6,29.5,29.73,NNE,26,14.0,30.0,88,0.00,,---,0.05,VWS V14.01,2013-03-10 10:06:00,
2013-03-10 05:11:00,32.5,29.4,29.74,North,5,6.0,30.0,88,0.00,,---,0.05,VWS V14.01,2013-03-10 10:11:00,
2013-03-10 05:16:00,32.4,29.2,29.73,NNW,338,10.0,30.0,88,0.00,,---,0.05,VWS V14.01,2013-03-10 10:16:00,
2013-03-10 05:21:00,32.3,29.1,29.72,North,360,5.0,30.0,88,0.00,,---,0.05,VWS V14.01,2013-03-10 10:21:00,
2013-03-10 05:26:00,32.2,29.0,29.73,North,360,7.0,30.0,88,0.00,,---,0.05,VWS V14.01,2013-03-10 10:26:00,
2013-03-10 05:31:00,32.3,29.1,29.75,NNW,348,6.0,30.0,88,0.00,,---,0.05,VWS V14.01,2013-03-10 10:31:00,
2013-03-10 05:36:00,32.3,29.1,29.76,NNE,15,15.0,21.0,88,0.00,,---,0.05,VWS V14.01,2013-03-10 10:36:00,
2013-03-10 05:41:00,32.2,29.0,29.75,NE,38,13.0,21.0,88,0.00,,---,0.05,VWS V14.01,2013-03-10 10:41:00,
2013-03-10 05:46:00,32.1,29.0,29.75,North,360,20.0,22.0,88,0.00,,---,0.05,VWS V14.01,2013-03-10 10:46:00,
2013-03-10 05:51:00,32.1,29.0,29.75,NE,40,12.0,26.0,88,0.00,,---,0.05,VWS V14.01,2013-03-10 10:51:00,
2013-03-10 05:56:00,32.1,28.7,29.74,North,360,12.0,26.0,87,0.00,,---,0.05,VWS V14.01,2013-03-10 10:56:00,
2013-03-10 06:01:00,32.1,28.7,29.75,NNE,28,9.0,26.0,87,0.00,,---,0.05,VWS V14.01,2013-03-10 11:01:00,
2013-03-10 06:06:00,32.2,28.8,29.76,NNE,28,7.0,23.0,87,0.00,,---,0.05,VWS V14.01,2013-03-10 11:06:00,
2013-03-10 06:11:00,32.2,28.8,29.78,North,5,16.0,26.0,87,0.00,,---,0.05,VWS V14.01,2013-03-10 11:11:00,
2013-03-10 06:16:00,32.1,28.7,29.80,NNE,32,7.0,26.0,87,0.00,,---,0.05,VWS V14.01,2013-03-10 11:16:00,
2013-03-10 06:21:00,32.1,28.7,29.80,NE,43,14.0,26.0,87,0.00,,---,0.05,VWS V14.01,2013-03-10 11:21:00,
2013-03-10 06:26:00,32.1,28.7,29.82,NNE,30,4.0,26.0,87,0.00,,---,0.05,VWS V14.01,2013-03-10 11:26:00,
2013-03-10 06:31:00,32.1,28.7,29.82,NNE,31,7.0,26.0,87,0.00,,---,0.05,VWS V14.01,2013-03-10 11:31:00,
2013-03-10 06:36:00,32.0,28.6,29.81,NNE,15,8.0,18.0,87,0.00,,---,0.05,VWS V14.01,2013-03-10 11:36:00,
2013-03-10 06:41:00,31.8,28.4,29.80,NNW,348,19.0,19.0,87,0.00,,---,0.05,VWS V14.01,2013-03-10 11:41:00,
2013-03-10 06:46:00,31.6,28.2,29.79,NNE,18,9.0,23.0,87,0.00,,---,0.05,VWS V14.01,2013-03-10 11:46:00,
2013-03-10 06:51:00,31.2,27.8,29.77,NE,42,9.0,25.0,87,0.00,,---,0.05,VWS V14.01,2013-03-10 11:51:00,
2013-03-10 06:56:00,31.0,27.9,29.77,North,5,18.0,25.0,88,0.00,,---,0.05,VWS V14.01,2013-03-10 11:56:00,
2013-03-10 07:01:00,30.8,27.7,29.78,NE,48,5.0,26.0,88,0.00,,---,0.05,VWS V14.01,2013-03-10 12:01:00,
2013-03-10 07:06:00,30.7,27.9,29.78,NNE,27,22.0,25.0,89,0.00,,---,0.05,VWS V14.01,2013-03-10 12:06:00,
2013-03-10 07:11:00,30.6,27.8,29.79,NNW,339,13.0,25.0,89,0.00,,---,0.05,VWS V14.01,2013-03-10 12:11:00,
2013-03-10 07:16:00,30.6,27.8,29.79,North,355,6.0,25.0,89,0.00,,---,0.05,VWS V14.01,2013-03-10 12:16:00,
2013-03-10 07:21:00,30.6,27.8,29.80,North,5,5.0,25.0,89,0.00,,---,0.05,VWS V14.01,2013-03-10 12:21:00,
2013-03-10 07:26:00,30.6,27.8,29.80,North,355,7.0,25.0,89,0.00,,---,0.05,VWS V14.01,2013-03-10 12:26:00,
2013-03-10 07:31:00,30.5,27.9,29.79,NNW,341,10.0,25.0,90,0.00,,---,0.05,VWS V14.01,2013-03-10 12:31:00,
2013-03-10 07:36:00,30.3,27.7,29.78,North,360,8.0,24.0,90,0.00,,---,0.05,VWS V14.01,2013-03-10 12:36:00,
2013-03-10 07:41:00,30.2,27.6,29.80,NNE,26,9.0,27.0,90,0.00,,---,0.05,VWS V14.01,2013-03-10 12:41:00,
2013-03-10 07:46:00,30.1,27.5,29.80,North,350,8.0,27.0,90,0.00,,---,0.05,VWS V14.01,2013-03-10 12:46:00,
2013-03-10 07:51:00,30.1,27.5,29.80,NNE,13,4.0,27.0,90,0.00,,---,0.05,VWS V14.01,2013-03-10 12:51:00,
2013-03-10 07:56:00,30.1,27.5,29.81,North,355,11.0,27.0,90,0.00,,---,0.05,VWS V14.01,2013-03-10 12:56:00,
2013-03-10 08:01:00,30.0,27.4,29.82,North,5,9.0,27.0,90,0.00,,---,0.05,VWS V14.01,2013-03-10 13:01:00,
2013-03-10 08:06:00,29.9,27.3,29.82,North,11,13.0,23.0,90,0.00,,---,0.05,VWS V14.01,2013-03-10 13:06:00,
2013-03-10 08:11:00,29.8,27.2,29.82,North,360,16.0,23.0,90,0.00,,---,0.05,VWS V14.01,2013-03-10 13:11:00,
2013-03-10 08:16:00,29.7,27.1,29.81,North,355,10.0,23.0,90,0.00,,---,0.05,VWS V14.01,2013-03-10 13:16:00,
2013-03-10 08:21:00,29.7,27.4,29.82,NNW,329,7.0,23.0,91,0.00,,---,0.05,VWS V14.01,2013-03-10 13:21:00,
2013-03-10 08:26:00,29.7,27.4,29.83,NE,36,5.0,23.0,91,0.00,,---,0.05,VWS V14.01,2013-03-10 13:26:00,
2013-03-10 08:31:00,29.7,27.4,29.83,NNW,346,9.0,23.0,91,0.00,,---,0.05,VWS V14.01,2013-03-10 13:31:00,
2013-03-10 08:36:00,29.7,27.4,29.83,NW,316,10.0,22.0,91,0.00,,---,0.05,VWS V14.01,2013-03-10 13:36:00,
2013-03-10 08:41:00,29.6,27.3,29.82,NE,42,13.0,22.0,91,0.00,,---,0.05,VWS V14.01,2013-03-10 13:41:00,
2013-03-10 08:46:00,29.5,27.2,29.82,North,5,4.0,22.0,91,0.00,,---,0.05,VWS V14.01,2013-03-10 13:46:00,
2013-03-10 08:51:00,29.5,27.2,29.83,NNW,340,9.0,22.0,91,0.00,,---,0.05,VWS V14.01,2013-03-10 13:51:00,
2013-03-10 08:56:00,29.5,27.2,29.84,North,355,3.0,22.0,91,0.00,,---,0.05,VWS V14.01,2013-03-10 13:56:00,
2013-03-10 09:01:00,29.6,27.3,29.84,NNE,15,6.0,22.0,91,0.00,,---,0.05,VWS V14.01,2013-03-10 14:01:00,
2013-03-10 09:06:00,29.5,27.2,29.83,North,5,10.0,21.0,91,0.00,,---,0.05,VWS V14.01,2013-03-10 14:06:00,
2013-03-10 09:11:00,29.3,27.0,29.83,North,355,8.0,23.0,91,0.00,,---,0.05,VWS V14.01,2013-03-10 14:11:00,
2013-03-10 09:16:00,29.2,26.9,29.83,North,355,6.0,23.0,91,0.00,,---,0.05,VWS V14.01,2013-03-10 14:16:00,
2013-03-10 09:21:00,29.2,26.9,29.83,NW,315,10.0,23.0,91,0.00,,---,0.05,VWS V14.01,2013-03-10 14:21:00,
2013-03-10 09:26:00,29.1,26.8,29.83,NNE,23,5.0,23.0,91,0.00,,---,0.05,VWS V14.01,2013-03-10 14:26:00,
2013-03-10 09:31:00,29.0,26.7,29.83,NE,38,13.0,23.0,91,0.00,,---,0.05,VWS V14.01,2013-03-10 14:31:00,
2013-03-10 09:36:00,28.9,26.6,29.82,NNW,336,12.0,22.0,91,0.00,,---,0.05,VWS V14.01,2013-03-10 14:36:00,
2013-03-10 09:41:00,28.8,26.5,29.82,NNE,13,11.0,26.0,91,0.00,,---,0.05,VWS V14.01,2013-03-10 14:41:00,
2013-03-10 09:46:00,28.8,26.5,29.83,North,355,11.0,26.0,91,0.00,,---,0.05,VWS V14.01,2013-03-10 14:46:00,
2013-03-10 09:51:00,28.8,26.5,29.83,North,355,22.0,26.0,91,0.00,,---,0.05,VWS V14.01,2013-03-10 14:51:00,
2013-03-10 09:56:00,28.7,26.4,29.83,North,349,11.0,26.0,91,0.00,,---,0.05,VWS V14.01,2013-03-10 14:56:00,
2013-03-10 10:01:00,28.6,26.3,29.84,North,9,11.0,26.0,91,0.00,,---,0.05,VWS V14.01,2013-03-10 15:01:00,
2013-03-10 10:06:00,28.6,26.3,29.85,North,360,10.0,21.0,91,0.00,,---,0.05,VWS V14.01,2013-03-10 15:06:00,
2013-03-10 10:11:00,28.5,26.2,29.84,NNE,24,7.0,21.0,91,0.00,,---,0.05,VWS V14.01,2013-03-10 15:11:00,
2013-03-10 10:16:00,28.5,26.2,29.84,North,349,12.0,21.0,91,0.00,,---,0.05,VWS V14.01,2013-03-10 15:16:00,
2013-03-10 10:21:00,28.6,26.3,29.85,North,360,5.0,21.0,91,0.00,,---,0.05,VWS V14.01,2013-03-10 15:21:00,
2013-03-10 10:26:00,28.7,26.4,29.85,NNE,24,11.0,21.0,91,0.00,,---,0.05,VWS V14.01,2013-03-10 15:26:00,
2013-03-10 10:31:00,28.7,26.4,29.85,NNE,20,11.0,22.0,91,0.00,,---,0.05,VWS V14.01,2013-03-10 15:31:00,
2013-03-10 10:36:00,28.5,26.2,29.85,NE,36,5.0,21.0,91,0.00,,---,0.05,VWS V14.01,2013-03-10 15:36:00,
2013-03-10 10:41:00,28.4,26.1,29.85,NNE,17,6.0,23.0,91,0.00,,---,0.05,VWS V14.01,2013-03-10 15:41:00,
2013-03-10 10:46:00,28.5,26.2,29.86,NNE,14,9.0,23.0,91,0.00,,---,0.05,VWS V14.01,2013-03-10 15:46:00,
2013-03-10 10:51:00,28.4,26.1,29.86,North,350,3.0,23.0,91,0.00,,---,0.05,VWS V14.01,2013-03-10 15:51:00,
2013-03-10 10:56:00,28.3,26.0,29.86,NNE,20,5.0,23.0,91,0.00,,---,0.05,VWS V14.01,2013-03-10 15:56:00,
2013-03-10 11:01:00,28.3,26.0,29.85,NW,321,9.0,23.0,91,0.00,,---,0.05,VWS V14.01,2013-03-10 16:01:00,
2013-03-10 11:06:00,28.3,26.0,29.86,North,355,6.0,16.0,91,0.00,,---,0.05,VWS V14.01,2013-03-10 16:06:00,
2013-03-10 11:11:00,28.2,25.9,29.86,North,5,18.0,20.0,91,0.00,,---,0.05,VWS V14.01,2013-03-10 16:11:00,
2013-03-10 11:16:00,28.1,25.8,29.85,NNW,344,19.0,21.0,91,0.00,,---,0.05,VWS V14.01,2013-03-10 16:16:00,
2013-03-10 11:21:00,28.1,25.8,29.85,North,360,11.0,22.0,91,0.00,,---,0.05,VWS V14.01,2013-03-10 16:21:00,
2013-03-10 11:26:00,28.0,25.7,29.86,NW,325,6.0,22.0,91,0.00,,---,0.05,VWS V14.01,2013-03-10 16:26:00,
2013-03-10 11:31:00,28.0,25.7,29.86,NNE,30,16.0,22.0,91,0.00,,---,0.05,VWS V14.01,2013-03-10 16:31:00,
2013-03-10 11:36:00,28.0,25.7,29.86,North,355,12.0,22.0,91,0.00,,---,0.05,VWS V14.01,2013-03-10 16:36:00,
2013-03-10 11:41:00,28.1,25.8,29.87,North,349,11.0,22.0,91,0.00,,---,0.05,VWS V14.01,2013-03-10 16:41:00,
2013-03-10 11:46:00,28.1,25.8,29.87,NNE,22,6.0,22.0,91,0.00,,---,0.05,VWS V14.01,2013-03-10 16:46:00,
2013-03-10 11:51:00,28.2,25.9,29.87,NNW,338,7.0,22.0,91,0.00,,---,0.05,VWS V14.01,2013-03-10 16:51:00,
2013-03-10 11:56:00,28.4,26.1,29.88,NE,42,11.0,22.0,91,0.00,,---,0.05,VWS V14.01,2013-03-10 16:56:00,
2013-03-10 12:01:00,28.2,25.9,29.88,North,360,13.0,28.0,91,0.00,,---,0.05,VWS V14.01,2013-03-10 17:01:00,
2013-03-10 12:06:00,28.3,26.0,29.88,North,355,5.0,13.0,91,0.00,,---,0.05,VWS V14.01,2013-03-10 17:06:00,
2013-03-10 12:11:00,28.3,26.0,29.88,North,360,7.0,15.0,91,0.00,,---,0.05,VWS V14.01,2013-03-10 17:11:00,
2013-03-10 12:16:00,28.1,25.8,29.88,NNW,347,12.0,20.0,91,0.00,,---,0.05,VWS V14.01,2013-03-10 17:16:00,
2013-03-10 12:21:00,28.0,25.5,29.88,NW,307,14.0,25.0,90,0.00,,---,0.05,VWS V14.01,2013-03-10 17:21:00,
2013-03-10 12:26:00,27.8,25.5,29.88,NNW,334,13.0,26.0,91,0.00,,---,0.05,VWS V14.01,2013-03-10 17:26:00,
2013-03-10 12:31:00,27.8,25.5,29.88,NNW,334,10.0,26.0,91,0.00,,---,0.05,VWS V14.01,2013-03-10 17:31:00,
2013-03-10 12:36:00,27.8,25.5,29.88,NNW,340,9.0,20.0,91,0.00,,---,0.05,VWS V14.01,2013-03-10 17:36:00,
2013-03-10 12:41:00,27.7,25.4,29.89,NNW,348,11.0,22.0,91,0.00,,---,0.05,VWS V14.01,2013-03-10 17:41:00,
2013-03-10 12:46:00,27.4,25.1,29.89,North,355,9.0,27.0,91,0.00,,---,0.05,VWS V14.01,2013-03-10 17:46:00,
2013-03-10 12:51:00,27.3,25.0,29.88,North,360,4.0,27.0,91,0.00,,---,0.05,VWS V14.01,2013-03-10 17:51:00,
2013-03-10 12:56:00,27.4,25.1,29.88,North,350,11.0,27.0,91,0.00,,---,0.05,VWS V14.01,2013-03-10 17:56:00,
2013-03-10 13:01:00,27.4,25.1,29.87,North,5,8.0,27.0,91,0.00,,---,0.05,VWS V14.01,2013-03-10 18:01:00,
2013-03-10 13:06:00,27.4,25.1,29.87,NNW,347,7.0,20.0,91,0.00,,---,0.05,VWS V14.01,2013-03-10 18:06:00,
2013-03-10 13:11:00,27.3,25.0,29.87,NNW,330,18.0,21.0,91,0.00,,---,0.05,VWS V14.01,2013-03-10 18:11:00,
2013-03-10 13:16:00,27.2,24.9,29.87,North,360,4.0,23.0,91,0.00,,---,0.05,VWS V14.01,2013-03-10 18:16:00,
2013-03-10 13:21:00,27.2,24.9,29.87,NNE,31,9.0,23.0,91,0.00,,---,0.05,VWS V14.01,2013-03-10 18:21:00,
2013-03-10 13:26:00,27.2,24.9,29.87,NNE,29,9.0,23.0,91,0.00,,---,0.05,VWS V14.01,2013-03-10 18:26:00,
2013-03-10 13:31:00,27.2,24.9,29.87,NNW,342,9.0,25.0,91,0.00,,---,0.05,VWS V14.01,2013-03-10 18:31:00,
2013-03-10 13:36:00,27.1,24.8,29.87,NNW,336,3.0,21.0,91,0.00,,---,0.05,VWS V14.01,2013-03-10 18:36:00,
2013-03-10 13:41:00,27.1,24.8,29.87,NNW,346,5.0,21.0,91,0.00,,---,0.05,VWS V14.01,2013-03-10 18:41:00,
2013-03-10 13:46:00,27.1,24.8,29.86,North,355,11.0,21.0,91,0.00,,---,0.05,VWS V14.01,2013-03-10 18:46:00,
2013-03-10 13:51:00,27.0,24.7,29.86,North,360,7.0,21.0,91,0.00,,---,0.05,VWS V14.01,2013-03-10 18:51:00,
2013-03-10 13:56:00,27.0,24.7,29.86,NNW,342,11.0,21.0,91,0.00,,---,0.05,VWS V14.01,2013-03-10 18:56:00,
2013-03-10 14:01:00,27.0,24.7,29.86,North,355,11.0,21.0,91,0.00,,---,0.05,VWS V14.01,2013-03-10 19:01:00,
2013-03-10 14:06:00,27.0,24.7,29.86,NNE,18,8.0,20.0,91,0.00,,---,0.05,VWS V14.01,2013-03-10 19:06:00,
2013-03-10 14:11:00,27.0,24.7,29.86,North,360,5.0,21.0,91,0.00,,---,0.05,VWS V14.01,2013-03-10 19:11:00,
2013-03-10 14:16:00,27.0,24.7,29.86,NNE,22,15.0,21.0,91,0.00,,---,0.05,VWS V14.01,2013-03-10 19:16:00,
2013-03-10 14:21:00,27.0,25.0,29.85,NW,325,9.0,21.0,92,0.00,,---,0.05,VWS V14.01,2013-03-10 19:21:00,
2013-03-10 14:26:00,27.0,25.0,29.85,North,349,4.0,21.0,92,0.00,,---,0.05,VWS V14.01,2013-03-10 19:26:00,
2013-03-10 14:31:00,27.0,25.0,29.86,NNW,345,4.0,21.0,92,0.00,,---,0.05,VWS V14.01,2013-03-10 19:31:00,
2013-03-10 14:36:00,27.0,25.0,29.86,NNW,329,7.0,18.0,92,0.00,,---,0.05,VWS V14.01,2013-03-10 19:36:00,
2013-03-10 14:41:00,26.9,24.9,29.86,North,350,9.0,20.0,92,0.00,,---,0.05,VWS V14.01,2013-03-10 19:41:00,
2013-03-10 14:46:00,26.9,24.9,29.86,NNW,347,11.0,20.0,92,0.00,,---,0.05,VWS V14.01,2013-03-10 19:46:00,
2013-03-10 14:51:00,26.9,24.9,29.86,North,11,19.0,20.0,92,0.00,,---,0.05,VWS V14.01,2013-03-10 19:51:00,
2013-03-10 14:56:00,26.9,24.9,29.85,North,355,12.0,20.0,92,0.00,,---,0.05,VWS V14.01,2013-03-10 19:56:00,
2013-03-10 15:01:00,26.9,24.9,29.85,NE,34,7.0,23.0,92,0.00,,---,0.05,VWS V14.01,2013-03-10 20:01:00,
2013-03-10 15:06:00,26.9,24.9,29.85,NNW,344,6.0,28.0,92,0.00,,---,0.05,VWS V14.01,2013-03-10 20:06:00,
2013-03-10 15:12:00,26.9,24.9,29.85,NNE,22,16.0,28.0,92,0.00,,---,0.05,VWS V14.01,2013-03-10 20:12:00,
2013-03-10 15:16:00,26.9,24.9,29.86,North,355,10.0,28.0,92,0.00,,---,0.05,VWS V14.01,2013-03-10 20:16:00,
2013-03-10 15:22:00,27.0,25.0,29.86,NNE,26,13.0,28.0,92,0.00,,---,0.05,VWS V14.01,2013-03-10 20:22:00,
2013-03-10 15:27:00,26.9,24.9,29.86,North,5,20.0,28.0,92,0.00,,---,0.05,VWS V14.01,2013-03-10 20:27:00,
2013-03-10 15:32:00,26.8,24.8,29.87,NW,304,10.0,10.0,92,0.00,,---,0.05,VWS V14.01,2013-03-10 20:32:00,
2013-03-10 15:37:00,26.8,24.8,29.87,NNW,333,13.0,20.0,92,0.00,,---,0.05,VWS V14.01,2013-03-10 20:37:00,
2013-03-10 15:42:00,26.9,24.9,29.87,North,5,11.0,22.0,92,0.00,,---,0.05,VWS V14.01,2013-03-10 20:42:00,
2013-03-10 15:47:00,26.7,24.7,29.87,NNW,345,3.0,22.0,92,0.00,,---,0.05,VWS V14.01,2013-03-10 20:47:00,
2013-03-10 15:52:00,26.7,24.7,29.87,North,355,6.0,22.0,92,0.00,,---,0.05,VWS V14.01,2013-03-10 20:52:00,
2013-03-10 15:57:00,26.6,24.6,29.88,NNW,342,6.0,22.0,92,0.00,,---,0.05,VWS V14.01,2013-03-10 20:57:00,
2013-03-10 16:02:00,26.5,24.5,29.88,NNE,22,12.0,17.0,92,0.00,,---,0.05,VWS V14.01,2013-03-10 21:02:00,
2013-03-10 16:07:00,26.3,24.3,29.88,North,9,12.0,23.0,92,0.00,,---,0.05,VWS V14.01,2013-03-10 21:07:00,
2013-03-10 16:12:00,26.3,24.3,29.89,NNW,336,3.0,23.0,92,0.00,,---,0.05,VWS V14.01,2013-03-10 21:12:00,
2013-03-10 16:17:00,26.2,24.2,29.89,NNW,347,7.0,23.0,92,0.00,,---,0.05,VWS V14.01,2013-03-10 21:17:00,
2013-03-10 16:22:00,26.2,24.2,29.89,West,273,12.0,23.0,92,0.00,,---,0.05,VWS V14.01,2013-03-10 21:22:00,
2013-03-10 16:27:00,26.1,24.1,29.89,NNE,13,19.0,23.0,92,0.00,,---,0.05,VWS V14.01,2013-03-10 21:27:00,
2013-03-10 16:32:00,26.1,24.1,29.90,NNW,346,5.0,19.0,92,0.00,,---,0.05,VWS V14.01,2013-03-10 21:32:00,
2013-03-10 16:37:00,26.0,24.0,29.90,NW,317,15.0,19.0,92,0.00,,---,0.05,VWS V14.01,2013-03-10 21:37:00,
2013-03-10 16:42:00,25.9,23.9,29.90,NNE,17,15.0,19.0,92,0.00,,---,0.05,VWS V14.01,2013-03-10 21:42:00,
2013-03-10 16:47:00,26.0,24.0,29.90,NNE,32,9.0,21.0,92,0.00,,---,0.05,VWS V14.01,2013-03-10 21:47:00,
2013-03-10 16:52:00,25.9,23.9,29.90,NNW,342,13.0,21.0,92,0.00,,---,0.05,VWS V14.01,2013-03-10 21:52:00,
2013-03-10 16:57:00,25.9,23.9,29.90,North,360,6.0,21.0,92,0.00,,---,0.05,VWS V14.01,2013-03-10 21:57:00,
2013-03-10 17:02:00,25.9,23.9,29.90,NNW,336,15.0,15.0,92,0.00,,---,0.05,VWS V14.01,2013-03-10 22:02:00,
2013-03-10 17:07:00,25.8,23.8,29.90,NNE,12,10.0,20.0,92,0.00,,---,0.05,VWS V14.01,2013-03-10 22:07:00,
2013-03-10 17:12:00,25.7,23.7,29.90,NNE,24,7.0,20.0,92,0.00,,---,0.05,VWS V14.01,2013-03-10 22:12:00,
2013-03-10 17:17:00,25.6,23.6,29.90,NW,326,6.0,20.0,92,0.00,,---,0.05,VWS V14.01,2013-03-10 22:17:00,
2013-03-10 17:22:00,25.5,23.5,29.91,NW,311,11.0,20.0,92,0.00,,---,0.05,VWS V14.01,2013-03-10 22:22:00,
2013-03-10 17:27:00,25.4,23.4,29.91,NNW,343,17.0,20.0,92,0.00,,---,0.05,VWS V14.01,2013-03-10 22:27:00,
2013-03-10 17:32:00,25.2,23.0,29.91,NNE,17,4.0,11.0,91,0.00,,---,0.05,VWS V14.01,2013-03-10 22:32:00,
2013-03-10 17:37:00,25.2,23.0,29.91,NW,323,3.0,15.0,91,0.00,,---,0.05,VWS V14.01,2013-03-10 22:37:00,
2013-03-10 17:42:00,25.1,22.9,29.91,NW,314,5.0,16.0,91,0.00,,---,0.05,VWS V14.01,2013-03-10 22:42:00,
2013-03-10 17:47:00,25.0,23.0,29.91,NNW,331,10.0,16.0,92,0.00,,---,0.05,VWS V14.01,2013-03-10 22:47:00,
2013-03-10 17:52:00,24.9,22.9,29.91,North,350,7.0,16.0,92,0.00,,---,0.05,VWS V14.01,2013-03-10 22:52:00,
2013-03-10 17:57:00,24.9,22.9,29.91,NNW,345,15.0,18.0,92,0.00,,---,0.05,VWS V14.01,2013-03-10 22:57:00,
2013-03-10 18:02:00,24.9,22.9,29.92,North,351,3.0,15.0,92,0.00,,---,0.05,VWS V14.01,2013-03-10 23:02:00,
2013-03-10 18:07:00,24.8,22.5,29.91,NW,317,4.0,18.0,91,0.00,,---,0.05,VWS V14.01,2013-03-10 23:07:00,
2013-03-10 18:12:00,24.8,22.5,29.92,NW,309,16.0,18.0,91,0.00,,---,0.05,VWS V14.01,2013-03-10 23:12:00,
2013-03-10 18:17:00,24.8,22.5,29.92,NW,313,8.0,18.0,91,0.00,,---,0.05,VWS V14.01,2013-03-10 23:17:00,
2013-03-10 18:22:00,24.8,22.5,29.92,NW,326,3.0,18.0,91,0.00,,---,0.05,VWS V14.01,2013-03-10 23:22:00,
2013-03-10 18:27:00,24.8,22.5,29.92,North,360,12.0,19.0,91,0.00,,---,0.05,VWS V14.01,2013-03-10 23:27:00,
2013-03-10 18:32:00,24.7,22.5,29.92,NNE,24,9.0,20.0,91,0.00,,---,0.05,VWS V14.01,2013-03-10 23:32:00,
2013-03-10 18:37:00,24.7,22.5,29.92,NW,320,6.0,20.0,91,0.00,,---,0.05,VWS V14.01,2013-03-10 23:37:00,
2013-03-10 18:42:00,24.7,22.5,29.93,WNW,297,4.0,20.0,91,0.00,,---,0.05,VWS V14.01,2013-03-10 23:42:00,
2013-03-10 18:47:00,24.7,22.5,29.93,NW,321,6.0,20.0,91,0.00,,---,0.05,VWS V14.01,2013-03-10 23:47:00,
2013-03-10 18:52:00,24.6,22.4,29.93,NW,309,3.0,20.0,91,0.00,,---,0.05,VWS V14.01,2013-03-10 23:52:00,
2013-03-10 18:57:00,24.6,22.4,29.93,NNW,332,2.0,20.0,91,0.00,,---,0.05,VWS V14.01,2013-03-10 23:57:00,
2013-03-10 19:02:00,24.6,22.4,29.93,NNW,331,5.0,7.0,91,0.00,,---,0.05,VWS V14.01,2013-03-11 00:02:00,
2013-03-10 19:07:00,24.5,22.2,29.94,WNW,291,12.0,14.0,91,0.00,,---,0.05,VWS V14.01,2013-03-11 00:07:00,
2013-03-10 19:12:00,24.5,22.2,29.94,North,355,10.0,14.0,91,0.00,,---,0.05,VWS V14.01,2013-03-11 00:12:00,
2013-03-10 19:17:00,24.4,22.2,29.94,WNW,299,6.0,20.0,91,0.00,,---,0.05,VWS V14.01,2013-03-11 00:17:00,
2013-03-10 19:22:00,24.4,22.2,29.94,NW,312,13.0,20.0,91,0.00,,---,0.05,VWS V14.01,2013-03-11 00:22:00,
2013-03-10 19:27:00,24.4,22.2,29.94,NW,326,4.0,20.0,91,0.00,,---,0.05,VWS V14.01,2013-03-11 00:27:00,
2013-03-10 19:32:00,24.4,22.2,29.94,WNW,288,10.0,16.0,91,0.00,,---,0.05,VWS V14.01,2013-03-11 00:32:00,
2013-03-10 19:37:00,24.4,22.2,29.94,North,355,6.0,19.0,91,0.00,,---,0.05,VWS V14.01,2013-03-11 00:37:00,
2013-03-10 19:42:00,24.4,22.2,29.94,NW,307,5.0,20.0,91,0.00,,---,0.05,VWS V14.01,2013-03-11 00:42:00,
2013-03-10 19:47:00,24.4,22.2,29.94,North,355,7.0,20.0,91,0.00,,---,0.05,VWS V14.01,2013-03-11 00:47:00,
2013-03-10 19:53:00,24.4,22.2,29.94,North,360,6.0,20.0,91,0.00,,---,0.05,VWS V14.01,2013-03-11 00:53:00,
2013-03-10 19:58:00,24.5,22.2,29.94,North,355,9.0,20.0,91,0.00,,---,0.05,VWS V14.01,2013-03-11 00:58:00,
2013-03-10 20:03:00,24.5,22.2,29.94,NNW,345,7.0,20.0,91,0.00,,---,0.05,VWS V14.01,2013-03-11 01:03:00,
2013-03-10 20:08:00,24.5,22.2,29.95,North,355,5.0,20.0,91,0.00,,---,0.05,VWS V14.01,2013-03-11 01:08:00,
2013-03-10 20:13:00,24.5,22.2,29.94,NNW,340,5.0,24.0,91,0.00,,---,0.05,VWS V14.01,2013-03-11 01:13:00,
2013-03-10 20:18:00,24.5,22.2,29.95,NNW,338,15.0,24.0,91,0.00,,---,0.05,VWS V14.01,2013-03-11 01:18:00,
2013-03-10 20:23:00,24.5,22.2,29.95,NW,320,14.0,24.0,91,0.00,,---,0.05,VWS V14.01,2013-03-11 01:23:00,
2013-03-10 20:28:00,24.5,22.2,29.95,NNE,14,7.0,24.0,91,0.00,,---,0.05,VWS V14.01,2013-03-11 01:28:00,
2013-03-10 20:33:00,24.5,22.2,29.95,North,360,2.0,6.0,91,0.00,,---,0.05,VWS V14.01,2013-03-11 01:33:00,
2013-03-10 20:38:00,24.5,22.2,29.95,NW,326,12.0,16.0,91,0.00,,---,0.05,VWS V14.01,2013-03-11 01:38:00,
2013-03-10 20:43:00,24.4,22.2,29.96,North,355,5.0,16.0,91,0.00,,---,0.05,VWS V14.01,2013-03-11 01:43:00,
2013-03-10 20:48:00,24.5,22.2,29.95,NNW,338,3.0,17.0,91,0.00,,---,0.05,VWS V14.01,2013-03-11 01:48:00,
2013-03-10 20:53:00,24.5,22.2,29.95,NNW,346,5.0,17.0,91,0.00,,---,0.05,VWS V14.01,2013-03-11 01:53:00,
2013-03-10 20:58:00,24.5,22.2,29.96,North,355,6.0,17.0,91,0.00,,---,0.05,VWS V14.01,2013-03-11 01:58:00,
2013-03-10 21:03:00,24.4,22.2,29.96,NW,322,4.0,11.0,91,0.00,,---,0.05,VWS V14.01,2013-03-11 02:03:00,
2013-03-10 21:08:00,24.4,22.2,29.96,NW,304,5.0,14.0,91,0.00,,---,0.05,VWS V14.01,2013-03-11 02:08:00,
2013-03-10 21:13:00,24.5,22.2,29.96,North,350,3.0,15.0,91,0.00,,---,0.05,VWS V14.01,2013-03-11 02:13:00,
2013-03-10 21:18:00,24.5,22.2,29.96,NW,316,3.0,15.0,91,0.00,,---,0.05,VWS V14.01,2013-03-11 02:18:00,
2013-03-10 21:23:00,24.5,22.2,29.96,NW,326,4.0,15.0,91,0.00,,---,0.05,VWS V14.01,2013-03-11 02:23:00,
2013-03-10 21:28:00,24.5,22.2,29.96,NNW,333,5.0,18.0,91,0.00,,---,0.05,VWS V14.01,2013-03-11 02:28:00,
2013-03-10 21:33:00,24.5,22.2,29.96,NW,314,4.0,10.0,91,0.00,,---,0.05,VWS V14.01,2013-03-11 02:33:00,
2013-03-10 21:38:00,24.6,22.4,29.96,NW,313,8.0,17.0,91,0.00,,---,0.05,VWS V14.01,2013-03-11 02:38:00,
2013-03-10 21:42:00,24.6,22.4,29.97,WNW,296,12.0,28.0,91,0.00,,---,0.05,VWS V14.01,2013-03-11 02:42:00,
2013-03-10 21:48:00,24.6,22.4,29.97,WNW,295,9.0,28.0,91,0.00,,---,0.05,VWS V14.01,2013-03-11 02:48:00,
2013-03-10 21:53:00,24.6,22.4,29.96,NNW,334,12.0,28.0,91,0.00,,---,0.05,VWS V14.01,2013-03-11 02:53:00,
2013-03-10 21:58:00,24.6,22.4,29.96,NNW,344,11.0,28.0,91,0.00,,---,0.05,VWS V14.01,2013-03-11 02:58:00,
2013-03-10 22:03:00,24.6,22.4,29.97,North,355,5.0,17.0,91,0.00,,---,0.05,VWS V14.01,2013-03-11 03:03:00,
2013-03-10 22:07:00,24.6,22.4,29.97,North,351,11.0,17.0,91,0.00,,---,0.05,VWS V14.01,2013-03-11 03:07:00,
2013-03-10 22:12:00,24.5,22.2,29.97,North,349,5.0,17.0,91,0.00,,---,0.05,VWS V14.01,2013-03-11 03:12:00,
2013-03-10 22:17:00,24.5,22.2,29.97,NW,323,12.0,25.0,91,0.00,,---,0.05,VWS V14.01,2013-03-11 03:17:00,
2013-03-10 22:22:00,24.4,22.2,29.97,NNW,342,6.0,25.0,91,0.00,,---,0.05,VWS V14.01,2013-03-11 03:22:00,
2013-03-10 22:28:00,24.2,22.0,29.97,NW,326,9.0,25.0,91,0.00,,---,0.05,VWS V14.01,2013-03-11 03:28:00,
2013-03-10 22:32:00,24.0,21.8,29.98,NNE,19,12.0,12.0,91,0.00,,---,0.05,VWS V14.01,2013-03-11 03:32:00,
2013-03-10 22:38:00,23.9,21.7,29.97,North,355,13.0,25.0,91,0.00,,---,0.05,VWS V14.01,2013-03-11 03:38:00,
2013-03-10 22:42:00,23.7,21.5,29.98,NNW,332,19.0,25.0,91,0.00,,---,0.05,VWS V14.01,2013-03-11 03:42:00,
2013-03-10 22:47:00,23.5,21.3,29.98,North,355,17.0,25.0,91,0.00,,---,0.05,VWS V14.01,2013-03-11 03:47:00,
2013-03-10 22:52:00,23.4,21.2,29.98,NNW,348,6.0,25.0,91,0.00,,---,0.05,VWS V14.01,2013-03-11 03:52:00,
2013-03-10 22:57:00,23.4,21.2,29.98,WNW,300,7.0,25.0,91,0.00,,---,0.05,VWS V14.01,2013-03-11 03:57:00,
2013-03-10 23:00:00,23.3,21.1,29.98,North,350,11.0,25.0,91,0.00,,---,0.05,VWS V14.01,2013-03-11 04:00:00,
2013-03-10 23:05:00,23.3,21.1,29.98,NW,319,3.0,19.0,91,0.00,,---,0.05,VWS V14.01,2013-03-11 04:05:00,
2013-03-10 23:10:00,23.1,20.9,29.98,NNW,345,4.0,19.0,91,0.00,,---,0.05,VWS V14.01,2013-03-11 04:10:00,
2013-03-10 23:15:00,23.1,20.9,29.98,NW,319,4.0,19.0,91,0.00,,---,0.05,VWS V14.01,2013-03-11 04:15:00,
2013-03-10 23:20:00,23.1,20.9,29.98,WNW,302,10.0,23.0,91,0.00,,---,0.05,VWS V14.01,2013-03-11 04:20:00,
2013-03-10 23:25:00,22.9,20.7,29.98,NW,326,5.0,23.0,91,0.00,,---,0.05,VWS V14.01,2013-03-11 04:25:00,
2013-03-10 23:30:00,22.8,20.6,29.98,NW,316,6.0,23.0,91,0.00,,---,0.05,VWS V14.01,2013-03-11 04:30:00,
2013-03-10 23:35:00,22.8,20.6,29.98,NNW,348,12.0,14.0,91,0.00,,---,0.05,VWS V14.01,2013-03-11 04:35:00,
2013-03-10 23:40:00,22.7,20.5,29.98,NW,323,13.0,18.0,91,0.00,,---,0.05,VWS V14.01,2013-03-11 04:40:00,
2013-03-10 23:45:00,22.7,20.5,29.98,NNW,327,5.0,20.0,91,0.00,,---,0.05,VWS V14.01,2013-03-11 04:45:00,
2013-03-10 23:50:00,22.6,20.4,29.98,NW,305,4.0,20.0,91,0.00,,---,0.05,VWS V14.01,2013-03-11 04:50:00,
2013-03-10 23:55:00,22.6,20.4,29.98,NNW,329,2.0,20.0,91,0.00,,---,0.05,VWS V14.01,2013-03-11 04:55:00,